User: anonymous   Login
Location: Fort Wayne
(41.1310°N, 85.1290°W)
Time: 00:09:50
(UTC-04:00)
Language:

Gbstr 26 Del rocket - Orbit

View from above orbital plane
View from above orbital plane
View from above satellite
View from above satellite

Ground track
Ground track

The orbit data is extracted from the following two-line orbital elements,

1 25876U 99041E   17114.66736493 +.00000333 +00000-0 +96774-4 0  9995
2 25876 051.7661 168.0059 0531525 232.0286 123.1491 14.04042340907086
Epoch (UTC): 24 April 2017 16:01:00
Eccentricity: 0.0531525
inclination: 51.7661°
perigee height: 494 km
apogee height: 1265 km
right ascension of ascending node: 168.0059°
argument of perigee: 232.0286°
revolutions per day: 14.04042340
mean anomaly at epoch: 123.1491°
orbit number at epoch: 90708

The dashed part of the orbit path shows where the satellite is in the earth's shadow,  

DLR